Location: Albany
(42.6526°N, 73.7562°W)
Time: 20:42:55
(UTC+00:00)

NOSS 3-1 (A) - Pass Details

Date: 19 November 2019
Orbit: 769 x 1443 km, 63.4° (Epoch: 01 December)

Event Time Altitude Azimuth Distance (km) Brightness Sun altitude
Rises 22:21:28 0° 222° (SW) 3,279 7.4 -9.8°
Reaches altitude 10° 22:23:47 10° 225° (SW) 2,396 6.7 -10.2°
Maximum altitude 22:29:14 69° 309° (NW) 944 3.6 -11.1°
Drops below altitude 10° 22:35:35 10° 33° (NNE) 2,764 5.4 -12.2°
Enters shadow 22:36:30 - 34° (NE) 3,108 5.7 -12.4°
